{"data":{"norad_id":64616,"intl_designator":"2025-137Y","name":"STARLINK-34413","alt_names":[],"object_type":"PAYLOAD","status":"ACTIVE","operator":null,"country":"US","launch_date":"2025-06-25","launch_site_code":"AFETR","launch_vehicle":null,"mission":null,"orbit_class":"UNKNOWN","rcs_meters":null,"size_class":null,"mass_kg":null,"dimensions":null,"purposes":["comms"],"wikipedia_slug":null,"has_3d_model":false,"image_url":null,"decayed_at":null,"tle_current":{"epoch":"2026-05-24T19:12:57.253824Z","epoch_age_seconds":82455,"freshness":"FRESH","line1":"1 64616U 25137Y   26144.80066266  .00012572  00000+0  43575-3 0  9995","line2":"2 64616  53.1621 342.0016 0000927  95.5846 264.5260 15.30209252 52487","mean_motion":15.30209252,"eccentricity":9.27e-5,"inclination_deg":53.1621,"raan_deg":342.0016,"arg_perigee_deg":95.5846,"mean_anomaly_deg":264.526,"bstar":0.00043575,"rev_number":5248,"period_min":94.1047767237,"perigee_km":474.55214157817,"apogee_km":475.82274793022,"semimajor_km":6853.3244447542,"source":"CELESTRAK","updated_at":"2026-05-25T13:38:20.498750Z"}}}